Time,TemperatureF,DewpointF,PressureIn,WindDirection,WindDirectionDegrees,WindSpeedMPH,WindSpeedGustMPH,Humidity,HourlyPrecipIn,Conditions,Clouds,dailyrainin,SoftwareType,DateUTC
2013-10-19 00:00:00,64.5,62.7,29.98,NW,315,0.0,0.0,94,13.53,,CLR,0.00,VWS V14.01,2013-10-19 05:00:00,
2013-10-19 00:01:00,64.3,62.8,29.98,NW,315,0.0,0.0,95,14.51,,OVC065,3.72,VWS V14.01,2013-10-19 05:01:00,
2013-10-19 00:06:00,64.3,62.8,29.98,NW,315,0.0,0.0,95,13.39,,OVC065,4.92,VWS V14.01,2013-10-19 05:06:00,
2013-10-19 00:10:00,64.3,62.5,29.98,NW,315,0.0,0.0,94,15.51,,CLR,2.32,VWS V14.01,2013-10-19 05:10:00,
2013-10-19 00:11:00,64.3,62.8,29.98,NW,315,0.0,0.0,95,14.47,,OVC039,6.00,VWS V14.01,2013-10-19 05:11:00,
2013-10-19 00:16:00,64.3,62.8,29.98,NW,315,0.0,0.0,95,13.41,,OVC039,7.20,VWS V14.01,2013-10-19 05:16:00,
2013-10-19 00:20:00,64.3,62.8,29.98,NW,315,0.0,0.0,95,15.47,,CLR,4.68,VWS V14.01,2013-10-19 05:20:00,
2013-10-19 00:21:00,64.3,62.8,29.98,NW,315,0.0,0.0,95,14.65,,OVC039,8.44,VWS V14.01,2013-10-19 05:21:00,
2013-10-19 00:26:00,64.3,62.8,29.98,NW,315,0.0,0.0,95,14.16,,OVC039,9.56,VWS V14.01,2013-10-19 05:26:00,
2013-10-19 00:30:00,64.3,62.8,29.98,NW,315,0.0,0.0,95,15.55,,CLR,7.08,VWS V14.01,2013-10-19 05:30:00,
2013-10-19 00:31:00,64.3,62.8,29.98,NW,315,0.0,0.0,95,15.36,,OVC039,10.76,VWS V14.01,2013-10-19 05:31:00,
2013-10-19 00:36:00,64.3,62.8,29.98,NW,315,0.0,0.0,95,14.16,,OVC039,11.84,VWS V14.01,2013-10-19 05:36:00,
2013-10-19 00:40:00,64.3,62.8,29.98,NW,315,0.0,0.0,95,15.53,,CLR,9.32,VWS V14.01,2013-10-19 05:40:00,
2013-10-19 00:41:00,64.3,62.8,29.98,NW,315,0.0,0.0,95,15.36,,OVC039,13.04,VWS V14.01,2013-10-19 05:41:00,
2013-10-19 00:46:00,64.3,62.8,29.98,NW,315,0.0,0.0,95,13.19,,OVC039,13.19,VWS V14.01,2013-10-19 05:46:00,
2013-10-19 00:50:00,64.3,62.8,29.98,NW,315,0.0,0.0,95,16.32,,CLR,11.72,VWS V14.01,2013-10-19 05:50:00,
2013-10-19 00:51:00,64.3,62.8,29.98,NW,315,0.0,0.0,95,13.19,,OVC080,13.19,VWS V14.01,2013-10-19 05:51:00,
2013-10-19 00:56:00,64.2,62.7,29.98,NW,315,0.0,0.0,95,10.87,,OVC080,13.19,VWS V14.01,2013-10-19 05:56:00,
2013-10-19 01:00:00,64.3,62.8,29.98,NW,315,0.0,0.0,95,15.51,,CLR,13.19,VWS V14.01,2013-10-19 06:00:00,
2013-10-19 01:01:00,64.2,62.7,29.98,NW,315,0.0,0.0,95,10.87,,,13.19,VWS V14.01,2013-10-19 06:01:00,
2013-10-19 01:06:00,64.2,62.7,29.98,NW,315,0.0,0.0,95,8.51,,,13.19,VWS V14.01,2013-10-19 06:06:00,
2013-10-19 01:10:00,64.3,62.8,29.98,NW,315,0.0,0.0,95,13.19,,CLR,13.19,VWS V14.01,2013-10-19 06:10:00,
2013-10-19 01:11:00,64.2,62.7,29.98,NW,315,0.0,0.0,95,8.51,,,13.19,VWS V14.01,2013-10-19 06:11:00,
2013-10-19 01:16:00,64.2,62.7,29.98,NW,315,0.0,0.0,95,6.11,,,13.19,VWS V14.01,2013-10-19 06:16:00,
2013-10-19 01:20:00,64.2,62.7,29.98,NW,315,0.0,0.0,95,10.87,,CLR,13.19,VWS V14.01,2013-10-19 06:20:00,
2013-10-19 01:21:00,64.2,62.7,29.98,NW,315,0.0,0.0,95,6.11,,,13.19,VWS V14.01,2013-10-19 06:21:00,
2013-10-19 01:26:00,64.2,62.7,29.98,NW,315,0.0,0.0,95,3.87,,,13.19,VWS V14.01,2013-10-19 06:26:00,
2013-10-19 01:30:00,64.2,62.7,29.98,NW,315,0.0,0.0,95,8.51,,CLR,13.19,VWS V14.01,2013-10-19 06:30:00,
2013-10-19 01:31:00,64.2,62.7,30.00,NW,315,0.0,0.0,95,3.87,,,13.19,VWS V14.01,2013-10-19 06:31:00,
2013-10-19 01:36:00,64.2,62.7,30.00,NW,315,0.0,0.0,95,1.47,,,13.19,VWS V14.01,2013-10-19 06:36:00,
2013-10-19 01:40:00,64.2,62.7,29.98,NW,315,0.0,0.0,95,6.11,,CLR,13.19,VWS V14.01,2013-10-19 06:40:00,
2013-10-19 01:41:00,64.2,62.7,30.00,NW,315,0.0,0.0,95,1.47,,,13.19,VWS V14.01,2013-10-19 06:41:00,
2013-10-19 01:46:00,64.3,62.8,30.01,NW,315,0.0,0.0,95,0.00,,,13.19,VWS V14.01,2013-10-19 06:46:00,
2013-10-19 01:50:00,64.2,62.7,30.00,NW,315,0.0,0.0,95,3.87,,CLR,13.19,VWS V14.01,2013-10-19 06:50:00,
2013-10-19 01:51:00,64.3,62.8,30.01,NW,315,0.0,0.0,95,0.00,,,13.19,VWS V14.01,2013-10-19 06:51:00,
2013-10-19 01:56:00,64.3,62.8,30.01,NW,315,0.0,0.0,95,0.00,,,13.19,VWS V14.01,2013-10-19 06:56:00,
2013-10-19 02:00:00,64.3,62.8,30.01,NW,315,0.0,0.0,95,1.47,,CLR,13.19,VWS V14.01,2013-10-19 07:00:00,
2013-10-19 02:01:00,64.5,63.0,30.01,NW,315,0.0,0.0,95,0.00,,-RA,13.19,VWS V14.01,2013-10-19 07:01:00,
2013-10-19 02:06:00,64.5,63.0,30.01,NW,315,0.0,0.0,95,0.00,,-RA,13.19,VWS V14.01,2013-10-19 07:06:00,
2013-10-19 02:10:00,64.3,62.8,30.01,NW,315,0.0,0.0,95,0.00,,CLR,13.19,VWS V14.01,2013-10-19 07:10:00,
2013-10-19 02:11:00,64.5,63.0,30.01,NW,315,0.0,0.0,95,0.00,,-RA,13.19,VWS V14.01,2013-10-19 07:11:00,
2013-10-19 02:16:00,64.5,63.0,30.01,NW,315,0.0,0.0,95,0.00,,-RA,13.19,VWS V14.01,2013-10-19 07:16:00,
2013-10-19 02:20:00,64.5,63.0,30.01,NW,315,0.0,0.0,95,0.00,,CLR,13.19,VWS V14.01,2013-10-19 07:20:00,
2013-10-19 02:21:00,64.5,63.0,30.01,NW,315,0.0,0.0,95,0.00,,-RA,13.19,VWS V14.01,2013-10-19 07:21:00,
2013-10-19 02:26:00,64.7,63.2,30.01,NW,315,0.0,0.0,95,0.00,,-RA,13.19,VWS V14.01,2013-10-19 07:26:00,
2013-10-19 02:30:00,64.5,63.0,30.01,NW,315,0.0,0.0,95,0.00,,CLR,13.19,VWS V14.01,2013-10-19 07:30:00,
2013-10-19 02:31:00,64.0,62.2,30.02,NW,321,0.0,0.0,94,0.00,,-RA,13.19,VWS V14.01,2013-10-19 07:31:00,
2013-10-19 02:36:00,62.7,61.0,30.02,NW,321,0.0,0.0,94,0.00,,-RA,13.19,VWS V14.01,2013-10-19 07:36:00,
2013-10-19 02:40:00,64.5,63.0,30.01,NW,315,0.0,0.0,95,0.00,,CLR,13.19,VWS V14.01,2013-10-19 07:40:00,
2013-10-19 02:41:00,61.9,60.2,30.02,NW,321,0.0,0.0,94,0.00,,OVC011,13.19,VWS V14.01,2013-10-19 07:41:00,
2013-10-19 02:46:00,61.1,59.4,30.03,NW,323,0.0,0.0,94,0.00,,OVC011,13.19,VWS V14.01,2013-10-19 07:46:00,
2013-10-19 02:50:00,62.9,61.2,30.02,NW,321,0.0,0.0,94,0.00,,CLR,13.19,VWS V14.01,2013-10-19 07:50:00,
2013-10-19 02:51:00,60.5,58.8,30.03,NW,323,0.0,0.0,94,0.00,,OVC011,13.19,VWS V14.01,2013-10-19 07:51:00,
2013-10-19 02:56:00,59.9,58.2,30.03,NW,323,0.0,0.0,94,0.00,,OVC011,13.19,VWS V14.01,2013-10-19 07:56:00,
2013-10-19 03:00:00,61.3,59.6,30.03,NW,323,0.0,0.0,94,0.00,,CLR,13.19,VWS V14.01,2013-10-19 08:00:00,
2013-10-19 03:01:00,59.4,57.7,30.04,NW,323,0.0,0.0,94,0.00,,OVC016,13.19,VWS V14.01,2013-10-19 08:01:00,
2013-10-19 03:06:00,59.1,57.4,30.04,NW,323,0.0,0.0,94,0.00,,OVC016,13.19,VWS V14.01,2013-10-19 08:06:00,
2013-10-19 03:10:00,59.9,58.2,30.03,NW,323,0.0,0.0,94,0.00,,CLR,13.19,VWS V14.01,2013-10-19 08:10:00,
2013-10-19 03:11:00,58.8,57.1,30.04,NW,323,0.0,0.0,94,0.00,,OVC016,13.19,VWS V14.01,2013-10-19 08:11:00,
2013-10-19 03:16:00,58.2,56.2,30.04,SSE,155,0.0,0.0,93,0.00,,OVC016,13.19,VWS V14.01,2013-10-19 08:16:00,
2013-10-19 03:20:00,59.1,57.4,30.04,NW,323,0.0,0.0,94,0.00,,CLR,13.19,VWS V14.01,2013-10-19 08:20:00,
2013-10-19 03:21:00,57.8,55.8,30.04,West,273,0.0,0.0,93,0.00,,OVC016,13.19,VWS V14.01,2013-10-19 08:21:00,
2013-10-19 03:26:00,57.5,55.5,30.04,West,273,0.0,0.0,93,0.00,,OVC016,13.19,VWS V14.01,2013-10-19 08:26:00,
2013-10-19 03:30:00,58.4,56.4,30.04,SSE,155,0.0,0.0,93,0.00,,CLR,13.19,VWS V14.01,2013-10-19 08:30:00,
2013-10-19 03:31:00,57.3,55.3,30.04,West,269,0.0,0.0,93,0.00,,OVC016,13.19,VWS V14.01,2013-10-19 08:31:00,
2013-10-19 03:36:00,57.1,55.1,30.04,West,280,0.0,0.0,93,0.00,,OVC016,13.19,VWS V14.01,2013-10-19 08:36:00,
2013-10-19 03:40:00,57.5,55.5,30.04,West,273,0.0,0.0,93,0.00,,CLR,13.19,VWS V14.01,2013-10-19 08:40:00,
2013-10-19 03:41:00,57.0,54.7,30.04,SW,229,0.0,0.0,92,0.00,,OVC016,13.19,VWS V14.01,2013-10-19 08:41:00,
2013-10-19 03:46:00,56.8,54.5,30.05,South,169,0.0,0.0,92,0.00,,OVC016,13.19,VWS V14.01,2013-10-19 08:46:00,
2013-10-19 03:50:00,57.1,55.1,30.04,West,278,0.0,0.0,93,0.00,,CLR,13.19,VWS V14.01,2013-10-19 08:50:00,
2013-10-19 03:51:00,56.8,54.5,30.05,South,169,0.0,0.0,92,0.00,,OVC016,13.19,VWS V14.01,2013-10-19 08:51:00,
2013-10-19 03:56:00,56.8,54.5,30.05,SSE,167,0.0,0.0,92,0.00,,OVC016,13.19,VWS V14.01,2013-10-19 08:56:00,
2013-10-19 04:00:00,56.8,54.5,30.05,South,169,0.0,0.0,92,0.00,,CLR,13.19,VWS V14.01,2013-10-19 09:00:00,
2013-10-19 04:01:00,56.7,54.4,30.06,West,267,0.0,0.0,92,0.00,,OVC026,13.19,VWS V14.01,2013-10-19 09:01:00,
2013-10-19 04:06:00,56.7,54.1,30.06,ESE,109,0.0,0.0,91,0.00,,OVC026,13.19,VWS V14.01,2013-10-19 09:06:00,
2013-10-19 04:10:00,56.8,54.5,30.05,SSE,167,0.0,0.0,92,0.00,,CLR,13.19,VWS V14.01,2013-10-19 09:10:00,
2013-10-19 04:11:00,56.7,54.1,30.06,SE,128,0.0,0.0,91,0.00,,OVC026,13.19,VWS V14.01,2013-10-19 09:11:00,
2013-10-19 04:16:00,56.7,54.1,30.06,ESE,109,0.0,0.0,91,0.00,,OVC026,13.19,VWS V14.01,2013-10-19 09:16:00,
2013-10-19 04:20:00,56.7,54.1,30.06,ESE,109,0.0,0.0,91,0.00,,CLR,13.19,VWS V14.01,2013-10-19 09:20:00,
2013-10-19 04:21:00,56.7,54.1,30.06,SE,143,0.0,0.0,91,0.00,,OVC026,13.19,VWS V14.01,2013-10-19 09:21:00,
2013-10-19 04:26:00,56.7,53.8,30.06,SE,146,0.0,0.0,90,0.00,,OVC026,13.19,VWS V14.01,2013-10-19 09:26:00,
2013-10-19 04:30:00,56.7,54.1,30.06,ESE,115,0.0,0.0,91,0.00,,CLR,13.19,VWS V14.01,2013-10-19 09:30:00,
2013-10-19 04:31:00,56.7,53.8,30.06,SSE,148,0.0,0.0,90,0.00,,OVC026,13.19,VWS V14.01,2013-10-19 09:31:00,
2013-10-19 04:36:00,56.5,53.6,30.06,South,171,0.0,0.0,90,0.00,,OVC026,13.19,VWS V14.01,2013-10-19 09:36:00,
2013-10-19 04:40:00,56.7,53.8,30.06,SE,146,0.0,0.0,90,0.00,,CLR,13.19,VWS V14.01,2013-10-19 09:40:00,
2013-10-19 04:41:00,56.5,53.6,30.06,East,97,0.0,0.0,90,0.00,,OVC026,13.19,VWS V14.01,2013-10-19 09:41:00,
2013-10-19 04:46:00,56.4,53.2,30.07,East,97,0.0,0.0,89,0.00,,OVC026,13.19,VWS V14.01,2013-10-19 09:46:00,
2013-10-19 04:50:00,56.5,53.6,30.06,SSE,148,0.0,0.0,90,0.00,,CLR,13.19,VWS V14.01,2013-10-19 09:50:00,
2013-10-19 04:51:00,56.2,53.0,30.07,SE,141,0.0,0.0,89,0.00,,OVC013,13.19,VWS V14.01,2013-10-19 09:51:00,
2013-10-19 04:56:00,56.2,53.0,30.07,ESE,121,0.0,0.0,89,0.00,,OVC013,13.19,VWS V14.01,2013-10-19 09:56:00,
2013-10-19 05:00:00,56.4,53.2,30.07,East,97,0.0,0.0,89,0.00,,CLR,13.19,VWS V14.01,2013-10-19 10:00:00,
2013-10-19 05:01:00,56.1,52.9,30.07,ESE,121,0.0,0.0,89,0.00,,OVC013,13.19,VWS V14.01,2013-10-19 10:01:00,
2013-10-19 05:06:00,56.0,52.5,30.07,North,355,0.0,0.0,88,0.00,,OVC013,13.19,VWS V14.01,2013-10-19 10:06:00,
2013-10-19 05:10:00,56.2,53.0,30.07,SW,221,0.0,0.0,89,0.00,,CLR,13.19,VWS V14.01,2013-10-19 10:10:00,
2013-10-19 05:11:00,55.7,52.2,30.07,North,355,0.0,0.0,88,0.00,,OVC015,13.19,VWS V14.01,2013-10-19 10:11:00,
2013-10-19 05:16:00,55.5,51.7,30.08,South,175,0.0,0.0,87,0.00,,OVC015,13.19,VWS V14.01,2013-10-19 10:16:00,
2013-10-19 05:20:00,56.0,52.5,30.07,ENE,72,0.0,0.0,88,0.00,,CLR,13.19,VWS V14.01,2013-10-19 10:20:00,
2013-10-19 05:21:00,55.2,51.1,30.08,SSE,153,0.0,0.0,86,0.00,,OVC015,13.19,VWS V14.01,2013-10-19 10:21:00,
2013-10-19 05:26:00,55.2,51.1,30.08,SE,128,0.0,0.0,86,0.00,,OVC015,13.19,VWS V14.01,2013-10-19 10:26:00,
2013-10-19 05:30:00,55.5,51.7,30.08,NNW,331,0.0,0.0,87,0.00,,CLR,13.19,VWS V14.01,2013-10-19 10:30:00,
2013-10-19 05:31:00,55.2,51.1,30.08,NE,42,0.0,0.0,86,0.00,,OVC015,13.19,VWS V14.01,2013-10-19 10:31:00,
2013-10-19 05:36:00,55.2,51.1,30.08,NE,42,0.0,0.0,86,0.00,,OVC015,13.19,VWS V14.01,2013-10-19 10:36:00,
2013-10-19 05:40:00,55.2,51.1,30.08,ESE,107,0.0,0.0,86,0.00,,CLR,13.19,VWS V14.01,2013-10-19 10:40:00,
2013-10-19 05:41:00,55.1,51.0,30.08,NE,42,0.0,0.0,86,0.00,,OVC015,13.19,VWS V14.01,2013-10-19 10:41:00,
2013-10-19 05:46:00,55.1,51.0,30.09,WNW,297,0.0,0.0,86,0.00,,OVC015,13.19,VWS V14.01,2013-10-19 10:46:00,
2013-10-19 05:50:00,55.2,51.4,30.08,NE,42,0.0,0.0,87,0.00,,CLR,13.19,VWS V14.01,2013-10-19 10:50:00,
2013-10-19 05:51:00,55.1,51.0,30.09,NW,308,0.0,0.0,86,0.00,,OVC015,13.19,VWS V14.01,2013-10-19 10:51:00,
2013-10-19 05:56:00,55.1,51.0,30.09,NW,308,0.0,0.0,86,0.00,,OVC015,13.19,VWS V14.01,2013-10-19 10:56:00,
2013-10-19 06:00:00,55.1,51.0,30.09,WNW,297,0.0,0.0,86,0.00,,CLR,13.19,VWS V14.01,2013-10-19 11:00:00,
2013-10-19 06:01:00,54.9,50.5,30.09,SSE,155,0.0,0.0,85,0.00,,OVC017,13.19,VWS V14.01,2013-10-19 11:01:00,
2013-10-19 06:06:00,54.8,50.4,30.09,SSE,148,0.0,0.0,85,0.00,,OVC017,13.19,VWS V14.01,2013-10-19 11:06:00,
2013-10-19 06:10:00,55.1,51.0,30.09,NW,308,0.0,0.0,86,0.00,,CLR,13.19,VWS V14.01,2013-10-19 11:10:00,
2013-10-19 06:11:00,54.5,49.8,30.09,North,9,0.0,0.0,84,0.00,,OVC017,13.19,VWS V14.01,2013-10-19 11:11:00,
2013-10-19 06:16:00,54.3,49.9,30.10,SE,127,0.0,0.0,85,0.00,,OVC017,13.19,VWS V14.01,2013-10-19 11:16:00,
2013-10-19 06:20:00,54.8,50.4,30.09,SSE,148,0.0,0.0,85,0.00,,CLR,13.19,VWS V14.01,2013-10-19 11:20:00,
2013-10-19 06:21:00,54.2,49.5,30.10,SSE,164,0.0,0.0,84,0.00,,OVC017,13.19,VWS V14.01,2013-10-19 11:21:00,
2013-10-19 06:26:00,54.0,49.6,30.10,SSE,165,0.0,0.0,85,0.00,,OVC017,13.19,VWS V14.01,2013-10-19 11:26:00,
2013-10-19 06:30:00,54.3,49.9,30.10,SE,127,0.0,0.0,85,0.00,,CLR,13.19,VWS V14.01,2013-10-19 11:30:00,
2013-10-19 06:31:00,54.0,49.6,30.11,SSE,165,0.0,0.0,85,0.00,,OVC017,13.19,VWS V14.01,2013-10-19 11:31:00,
2013-10-19 06:36:00,53.9,49.2,30.11,SE,130,0.0,0.0,84,0.00,,OVC017,13.19,VWS V14.01,2013-10-19 11:36:00,
2013-10-19 06:40:00,54.0,49.6,30.10,SSE,165,0.0,0.0,85,0.00,,CLR,13.19,VWS V14.01,2013-10-19 11:40:00,
2013-10-19 06:41:00,53.9,49.5,30.11,SE,130,0.0,0.0,85,0.00,,OVC017,13.19,VWS V14.01,2013-10-19 11:41:00,
2013-10-19 06:46:00,53.9,49.8,30.12,ESE,111,0.0,0.0,86,0.00,,OVC017,13.19,VWS V14.01,2013-10-19 11:46:00,
2013-10-19 06:50:00,53.9,49.2,30.11,SE,130,0.0,0.0,84,0.00,,CLR,13.19,VWS V14.01,2013-10-19 11:50:00,
2013-10-19 06:51:00,53.9,49.5,30.12,ENE,68,0.0,0.0,85,0.00,,OVC017,13.19,VWS V14.01,2013-10-19 11:51:00,
2013-10-19 06:56:00,53.7,49.3,30.12,SSE,156,0.0,0.0,85,0.00,,OVC017,13.19,VWS V14.01,2013-10-19 11:56:00,
2013-10-19 07:00:00,53.9,49.5,30.12,SE,130,0.0,0.0,85,0.00,,CLR,13.19,VWS V14.01,2013-10-19 12:00:00,
2013-10-19 07:01:00,53.6,49.2,30.12,SW,223,0.0,0.0,85,0.00,,OVC015,13.19,VWS V14.01,2013-10-19 12:01:00,
2013-10-19 07:06:00,53.4,48.7,30.12,ESE,103,0.0,0.0,84,0.00,,OVC015,13.19,VWS V14.01,2013-10-19 12:06:00,
2013-10-19 07:10:00,53.7,49.3,30.12,South,187,0.0,0.0,85,0.00,,CLR,13.19,VWS V14.01,2013-10-19 12:10:00,
2013-10-19 07:11:00,53.3,48.6,30.12,SE,132,0.0,0.0,84,0.00,,OVC015,13.19,VWS V14.01,2013-10-19 12:11:00,
2013-10-19 07:16:00,53.1,48.4,30.12,SE,130,0.0,0.0,84,0.00,,OVC015,13.19,VWS V14.01,2013-10-19 12:16:00,
2013-10-19 07:20:00,53.4,48.7,30.12,ESE,111,0.0,0.0,84,0.00,,CLR,13.19,VWS V14.01,2013-10-19 12:20:00,
2013-10-19 07:21:00,53.0,48.6,30.12,West,281,0.0,0.0,85,0.00,,OVC015,13.19,VWS V14.01,2013-10-19 12:21:00,
2013-10-19 07:26:00,52.8,48.1,30.12,SSW,204,0.0,0.0,84,0.00,,OVC015,13.19,VWS V14.01,2013-10-19 12:26:00,
2013-10-19 07:30:00,53.1,48.4,30.12,SE,130,0.0,0.0,84,0.00,,CLR,13.19,VWS V14.01,2013-10-19 12:30:00,
2013-10-19 07:31:00,52.7,48.0,30.14,SW,236,0.0,0.0,84,0.00,,OVC015,13.19,VWS V14.01,2013-10-19 12:31:00,
2013-10-19 07:36:00,52.6,47.9,30.14,SE,146,0.0,0.0,84,0.00,,OVC015,13.19,VWS V14.01,2013-10-19 12:36:00,
2013-10-19 07:40:00,53.0,48.6,30.12,SSW,202,0.0,0.0,85,0.00,,CLR,13.19,VWS V14.01,2013-10-19 12:40:00,
2013-10-19 07:41:00,52.6,47.9,30.14,WNW,301,0.0,0.0,84,0.00,,OVC015,13.19,VWS V14.01,2013-10-19 12:41:00,
2013-10-19 07:46:00,52.4,47.7,30.14,SSE,163,0.0,0.0,84,0.00,,OVC015,13.19,VWS V14.01,2013-10-19 12:46:00,
2013-10-19 07:50:00,52.6,47.9,30.14,SE,146,0.0,0.0,84,0.00,,CLR,13.19,VWS V14.01,2013-10-19 12:50:00,
2013-10-19 07:51:00,52.1,47.1,30.14,West,278,0.0,0.0,83,0.00,,SCT015,13.19,VWS V14.01,2013-10-19 12:51:00,
2013-10-19 07:56:00,51.8,46.8,30.14,West,262,0.0,0.0,83,0.00,,SCT015,13.19,VWS V14.01,2013-10-19 12:56:00,
2013-10-19 08:00:00,52.4,47.7,30.14,WNW,301,0.0,0.0,84,0.00,,CLR,13.19,VWS V14.01,2013-10-19 13:00:00,
2013-10-19 08:01:00,51.5,46.5,30.15,WSW,254,0.0,0.0,83,0.00,,FEW015,13.19,VWS V14.01,2013-10-19 13:01:00,
2013-10-19 08:06:00,51.4,46.4,30.15,ESE,113,0.0,0.0,83,0.00,,FEW015,13.19,VWS V14.01,2013-10-19 13:06:00,
2013-10-19 08:10:00,51.8,46.8,30.14,West,262,0.0,0.0,83,0.00,,CLR,13.19,VWS V14.01,2013-10-19 13:10:00,
2013-10-19 08:11:00,51.4,46.4,30.15,WNW,303,0.0,0.0,83,0.00,,FEW015,13.19,VWS V14.01,2013-10-19 13:11:00,
2013-10-19 08:16:00,51.2,46.2,30.15,WNW,303,0.0,0.0,83,0.00,,FEW015,13.19,VWS V14.01,2013-10-19 13:16:00,
2013-10-19 08:20:00,51.5,46.5,30.15,ESE,113,0.0,0.0,83,0.00,,CLR,13.19,VWS V14.01,2013-10-19 13:20:00,
2013-10-19 08:21:00,51.2,46.2,30.15,WNW,298,0.0,0.0,83,0.00,,FEW015,13.19,VWS V14.01,2013-10-19 13:21:00,
2013-10-19 08:26:00,51.2,46.2,30.15,WSW,249,0.0,0.0,83,0.00,,FEW015,13.19,VWS V14.01,2013-10-19 13:26:00,
2013-10-19 08:30:00,51.2,46.2,30.15,WNW,303,0.0,0.0,83,0.00,,CLR,13.19,VWS V14.01,2013-10-19 13:30:00,
2013-10-19 08:31:00,51.2,46.2,30.16,WSW,248,0.0,0.0,83,0.00,,FEW015,13.19,VWS V14.01,2013-10-19 13:31:00,
2013-10-19 08:36:00,51.4,46.4,30.16,SW,231,0.0,0.0,83,0.00,,FEW015,13.19,VWS V14.01,2013-10-19 13:36:00,
2013-10-19 08:40:00,51.2,46.2,30.15,WSW,249,0.0,0.0,83,0.00,,CLR,13.19,VWS V14.01,2013-10-19 13:40:00,
2013-10-19 08:41:00,51.4,46.4,30.16,SW,232,0.0,0.0,83,0.00,,FEW015,13.19,VWS V14.01,2013-10-19 13:41:00,
2013-10-19 08:46:00,51.4,45.8,30.16,SSW,209,0.0,0.0,81,0.00,,FEW015,13.19,VWS V14.01,2013-10-19 13:46:00,
2013-10-19 08:50:00,51.4,46.4,30.16,SW,229,0.0,0.0,83,0.00,,CLR,13.19,VWS V14.01,2013-10-19 13:50:00,
2013-10-19 08:51:00,51.4,45.8,30.16,SSW,209,0.0,0.0,81,0.00,,FEW015,13.19,VWS V14.01,2013-10-19 13:51:00,
2013-10-19 08:56:00,51.5,45.9,30.16,SSW,209,0.0,0.0,81,0.00,,FEW015,13.19,VWS V14.01,2013-10-19 13:56:00,
2013-10-19 09:00:00,51.4,45.8,30.16,SSW,209,0.0,0.0,81,0.00,,CLR,13.19,VWS V14.01,2013-10-19 14:00:00,
2013-10-19 09:01:00,51.7,46.1,30.17,SW,215,0.0,0.0,81,0.00,,CLR,13.19,VWS V14.01,2013-10-19 14:01:00,
2013-10-19 09:06:00,51.7,45.7,30.17,West,270,0.0,0.0,80,0.00,,CLR,13.19,VWS V14.01,2013-10-19 14:06:00,
2013-10-19 09:10:00,51.5,45.9,30.16,SSW,209,0.0,0.0,81,0.00,,CLR,13.19,VWS V14.01,2013-10-19 14:10:00,
2013-10-19 09:11:00,51.7,44.7,30.17,SE,128,0.0,0.0,77,0.00,,CLR,13.19,VWS V14.01,2013-10-19 14:11:00,
2013-10-19 09:16:00,51.8,44.8,30.17,NNE,15,0.0,0.0,77,0.00,,CLR,13.19,VWS V14.01,2013-10-19 14:16:00,
2013-10-19 09:20:00,51.7,45.7,30.17,West,274,0.0,0.0,80,0.00,,CLR,13.19,VWS V14.01,2013-10-19 14:20:00,
2013-10-19 09:21:00,52.0,44.7,30.17,ENE,60,0.0,0.0,76,0.00,,CLR,13.19,VWS V14.01,2013-10-19 14:21:00,
2013-10-19 09:26:00,52.0,44.0,30.17,ENE,78,0.0,0.0,74,0.00,,CLR,13.19,VWS V14.01,2013-10-19 14:26:00,
2013-10-19 09:30:00,51.8,44.8,30.17,NNE,15,0.0,0.0,77,0.00,,CLR,13.19,VWS V14.01,2013-10-19 14:30:00,
2013-10-19 09:31:00,52.1,44.4,30.17,East,92,0.0,0.0,75,0.00,,CLR,13.19,VWS V14.01,2013-10-19 14:31:00,
2013-10-19 09:36:00,52.4,45.1,30.17,NW,319,0.0,0.0,76,0.00,,CLR,13.19,VWS V14.01,2013-10-19 14:36:00,
2013-10-19 09:40:00,52.0,44.0,30.17,ENE,78,0.0,0.0,74,0.00,,CLR,13.19,VWS V14.01,2013-10-19 14:40:00,
2013-10-19 09:41:00,52.7,45.0,30.17,NW,319,0.0,0.0,75,0.00,,CLR,13.19,VWS V14.01,2013-10-19 14:41:00,
2013-10-19 09:46:00,52.7,44.3,30.18,WSW,246,0.0,0.0,73,0.00,,CLR,13.19,VWS V14.01,2013-10-19 14:46:00,
2013-10-19 09:50:00,52.4,44.7,30.17,NW,319,0.0,0.0,75,0.00,,CLR,13.19,VWS V14.01,2013-10-19 14:50:00,
2013-10-19 09:51:00,52.8,44.4,30.18,SE,143,0.0,0.0,73,0.00,,CLR,13.19,VWS V14.01,2013-10-19 14:51:00,
2013-10-19 09:56:00,53.1,45.0,30.18,SE,146,0.0,0.0,74,0.00,,CLR,13.19,VWS V14.01,2013-10-19 14:56:00,
2013-10-19 10:00:00,52.7,44.3,30.18,WSW,247,0.0,0.0,73,0.00,,CLR,13.19,VWS V14.01,2013-10-19 15:00:00,
2013-10-19 10:01:00,53.3,44.5,30.18,SSE,161,0.0,0.0,72,0.00,,CLR,13.19,VWS V14.01,2013-10-19 15:01:00,
2013-10-19 10:06:00,53.4,44.6,30.18,South,171,0.0,0.0,72,0.00,,CLR,13.19,VWS V14.01,2013-10-19 15:06:00,
2013-10-19 10:10:00,53.1,45.0,30.18,SE,146,0.0,0.0,74,0.00,,CLR,13.19,VWS V14.01,2013-10-19 15:10:00,
2013-10-19 10:11:00,53.7,44.5,30.18,SSE,166,0.0,0.0,71,0.00,,CLR,13.19,VWS V14.01,2013-10-19 15:11:00,
2013-10-19 10:16:00,53.9,44.0,30.18,SSE,152,0.0,0.0,69,0.00,,CLR,13.19,VWS V14.01,2013-10-19 15:16:00,
2013-10-19 10:20:00,53.4,44.2,30.18,South,171,0.0,0.0,71,0.00,,CLR,13.19,VWS V14.01,2013-10-19 15:20:00,
2013-10-19 10:21:00,54.2,44.3,30.18,East,93,0.0,0.0,69,0.00,,CLR,13.19,VWS V14.01,2013-10-19 15:21:00,
2013-10-19 10:26:00,54.5,44.9,30.18,SE,144,0.0,0.0,70,0.00,,CLR,13.19,VWS V14.01,2013-10-19 15:26:00,
2013-10-19 10:30:00,53.9,44.0,30.18,SE,139,0.0,0.0,69,0.00,,CLR,13.19,VWS V14.01,2013-10-19 15:30:00,
2013-10-19 10:31:00,54.6,43.5,30.19,ESE,123,0.0,0.0,66,0.00,,CLR,13.19,VWS V14.01,2013-10-19 15:31:00,
2013-10-19 10:36:00,54.9,44.9,30.19,SSE,155,0.0,0.0,69,0.00,,CLR,13.19,VWS V14.01,2013-10-19 15:36:00,
2013-10-19 10:40:00,54.5,44.9,30.18,SE,144,0.0,0.0,70,0.00,,CLR,13.19,VWS V14.01,2013-10-19 15:40:00,
2013-10-19 10:41:00,55.4,45.4,30.19,ENE,69,0.0,0.0,69,0.00,,CLR,13.19,VWS V14.01,2013-10-19 15:41:00,
2013-10-19 10:46:00,55.5,44.3,30.18,South,172,0.0,0.0,66,0.00,,CLR,13.19,VWS V14.01,2013-10-19 15:46:00,
2013-10-19 10:50:00,54.9,44.9,30.19,SSE,155,0.0,0.0,69,0.00,,CLR,13.19,VWS V14.01,2013-10-19 15:50:00,
2013-10-19 10:51:00,55.7,44.5,30.18,SW,223,0.0,0.0,66,0.00,,CLR,13.19,VWS V14.01,2013-10-19 15:51:00,
2013-10-19 10:56:00,55.8,44.2,30.18,SSW,194,0.0,0.0,65,0.00,,CLR,13.19,VWS V14.01,2013-10-19 15:56:00,
2013-10-19 11:00:00,55.5,44.3,30.18,South,172,0.0,0.0,66,0.00,,CLR,13.19,VWS V14.01,2013-10-19 16:00:00,
2013-10-19 11:01:00,56.1,44.9,30.19,SSE,148,0.0,0.0,66,0.00,,CLR,13.19,VWS V14.01,2013-10-19 16:01:00,
2013-10-19 11:06:00,56.5,45.3,30.19,West,277,0.0,0.0,66,0.00,,CLR,13.19,VWS V14.01,2013-10-19 16:06:00,
2013-10-19 11:10:00,55.8,44.2,30.18,SSW,194,0.0,0.0,65,0.00,,CLR,13.19,VWS V14.01,2013-10-19 16:10:00,
2013-10-19 11:11:00,56.8,43.9,30.19,SE,140,0.0,0.0,62,0.00,,CLR,13.19,VWS V14.01,2013-10-19 16:11:00,
2013-10-19 11:16:00,57.1,44.6,30.18,SSW,210,0.0,0.0,63,0.00,,CLR,13.19,VWS V14.01,2013-10-19 16:16:00,
2013-10-19 11:20:00,56.5,45.3,30.19,West,277,0.0,0.0,66,0.00,,CLR,13.19,VWS V14.01,2013-10-19 16:20:00,
2013-10-19 11:21:00,57.5,43.7,30.18,South,169,0.0,0.0,60,0.00,,CLR,13.19,VWS V14.01,2013-10-19 16:21:00,
2013-10-19 11:26:00,57.6,43.4,30.18,SE,132,0.0,0.0,59,0.00,,CLR,13.19,VWS V14.01,2013-10-19 16:26:00,
2013-10-19 11:30:00,57.1,44.6,30.18,SSW,210,0.0,0.0,63,0.00,,CLR,13.19,VWS V14.01,2013-10-19 16:30:00,
2013-10-19 11:31:00,58.1,45.6,30.18,SW,224,0.0,0.0,63,0.00,,CLR,13.19,VWS V14.01,2013-10-19 16:31:00,
2013-10-19 11:36:00,58.4,42.8,30.18,NW,311,0.0,0.0,56,0.00,,CLR,13.19,VWS V14.01,2013-10-19 16:36:00,
2013-10-19 11:40:00,57.6,43.4,30.18,SE,132,0.0,0.0,59,0.00,,CLR,13.19,VWS V14.01,2013-10-19 16:40:00,
2013-10-19 11:41:00,58.5,41.9,30.18,SSE,157,0.0,0.0,54,0.00,,CLR,13.19,VWS V14.01,2013-10-19 16:41:00,
2013-10-19 11:46:00,58.8,41.7,30.18,SE,130,0.0,0.0,53,0.00,,CLR,13.19,VWS V14.01,2013-10-19 16:46:00,
2013-10-19 11:50:00,58.4,42.8,30.18,NW,311,0.0,0.0,56,0.00,,CLR,13.19,VWS V14.01,2013-10-19 16:50:00,
2013-10-19 11:51:00,59.3,43.2,30.18,ESE,107,0.0,0.0,55,0.00,,CLR,13.19,VWS V14.01,2013-10-19 16:51:00,
2013-10-19 11:56:00,60.0,45.2,30.18,ESE,109,0.0,0.0,58,0.00,,CLR,13.19,VWS V14.01,2013-10-19 16:56:00,
2013-10-19 12:00:00,58.8,41.7,30.18,SE,130,0.0,0.0,53,0.00,,CLR,13.19,VWS V14.01,2013-10-19 17:00:00,
2013-10-19 12:01:00,60.5,43.3,30.18,NNE,12,0.0,0.0,53,0.00,,CLR,13.19,VWS V14.01,2013-10-19 17:01:00,
2013-10-19 12:06:00,61.1,42.3,30.18,East,91,0.0,0.0,50,0.00,,CLR,13.19,VWS V14.01,2013-10-19 17:06:00,
2013-10-19 12:10:00,60.0,45.2,30.18,ESE,109,0.0,0.0,58,0.00,,CLR,13.19,VWS V14.01,2013-10-19 17:10:00,
2013-10-19 12:11:00,61.8,41.9,30.18,East,98,0.0,0.0,48,0.79,,CLR,13.98,VWS V14.01,2013-10-19 17:11:00,
2013-10-19 12:16:00,62.4,43.5,30.17,SE,125,0.0,0.0,50,2.03,,CLR,15.22,VWS V14.01,2013-10-19 17:16:00,
2013-10-19 12:20:00,61.1,42.3,30.18,East,91,0.0,0.0,50,0.00,,CLR,13.19,VWS V14.01,2013-10-19 17:20:00,
2013-10-19 12:21:00,62.6,42.7,30.17,SSE,148,0.0,0.0,48,3.11,,CLR,16.30,VWS V14.01,2013-10-19 17:21:00,
2013-10-19 12:26:00,62.7,41.6,30.17,East,94,0.0,0.0,46,4.31,,CLR,17.50,VWS V14.01,2013-10-19 17:26:00,
2013-10-19 12:30:00,62.4,43.5,30.17,SE,125,0.0,0.0,50,2.03,,CLR,15.22,VWS V14.01,2013-10-19 17:30:00,
2013-10-19 12:31:00,63.0,41.9,30.17,WNW,291,0.0,0.0,46,5.51,,CLR,18.70,VWS V14.01,2013-10-19 17:31:00,
2013-10-19 12:36:00,63.5,42.4,30.17,SSW,211,0.0,0.0,46,6.71,,CLR,19.90,VWS V14.01,2013-10-19 17:36:00,
2013-10-19 12:40:00,62.7,41.6,30.17,East,94,0.0,0.0,46,4.31,,CLR,17.50,VWS V14.01,2013-10-19 17:40:00,
2013-10-19 12:41:00,63.8,44.3,30.17,ESE,105,0.0,0.0,49,7.79,,CLR,20.98,VWS V14.01,2013-10-19 17:41:00,
2013-10-19 12:46:00,64.2,39.4,30.17,SE,138,0.0,0.0,40,9.03,,CLR,22.22,VWS V14.01,2013-10-19 17:46:00,
2013-10-19 12:50:00,63.5,42.4,30.17,SSW,211,0.0,0.0,46,6.71,,CLR,19.90,VWS V14.01,2013-10-19 17:50:00,
2013-10-19 12:51:00,64.3,40.1,30.17,NE,47,0.0,0.0,41,10.13,,CLR,23.32,VWS V14.01,2013-10-19 17:51:00,
2013-10-19 12:56:00,64.7,42.3,30.17,SE,131,0.0,0.0,44,10.86,,CLR,24.05,VWS V14.01,2013-10-19 17:56:00,
2013-10-19 13:00:00,58.8,41.7,30.18,SE,130,0.0,0.0,53,0.00,,CLR,13.19,VWS V15.00,2013-10-19 18:00:00,
2013-10-19 13:01:00,65.1,42.7,30.16,SSE,154,0.0,0.0,44,12.06,,CLR,25.25,VWS V14.01,2013-10-19 18:01:00,
2013-10-19 13:06:00,65.5,41.2,30.16,West,271,0.0,0.0,41,13.14,,CLR,26.33,VWS V14.01,2013-10-19 18:06:00,
2013-10-19 13:10:00,64.7,42.3,30.17,SE,131,0.0,0.0,44,10.86,,CLR,24.05,VWS V14.01,2013-10-19 18:10:00,
2013-10-19 13:11:00,65.5,39.9,30.16,NNE,22,0.0,0.0,39,14.26,,CLR,27.45,VWS V14.01,2013-10-19 18:11:00,
2013-10-19 13:16:00,65.8,39.5,30.15,NNW,333,0.0,0.0,38,15.54,,CLR,28.73,VWS V14.01,2013-10-19 18:16:00,
2013-10-19 13:20:00,65.5,41.2,30.16,West,271,0.0,0.0,41,13.14,,CLR,26.33,VWS V14.01,2013-10-19 18:20:00,
2013-10-19 13:21:00,66.3,42.5,30.15,East,94,0.0,0.0,42,14.71,,CLR,29.93,VWS V14.01,2013-10-19 18:21:00,
2013-10-19 13:26:00,67.1,42.0,30.15,ENE,66,0.0,0.0,40,13.63,,CLR,31.13,VWS V14.01,2013-10-19 18:26:00,
2013-10-19 13:30:00,65.8,39.5,30.15,NNW,333,0.0,0.0,38,15.54,,CLR,28.73,VWS V14.01,2013-10-19 18:30:00,
2013-10-19 13:31:00,67.4,42.3,30.15,East,100,0.0,0.0,40,14.71,,CLR,32.21,VWS V14.01,2013-10-19 18:31:00,
2013-10-19 13:36:00,67.3,40.8,30.15,SE,144,0.0,0.0,38,15.91,,CLR,33.41,VWS V14.01,2013-10-19 18:36:00,
2013-10-19 13:40:00,67.1,42.0,30.15,ENE,66,0.0,0.0,40,15.79,,CLR,31.01,VWS V14.01,2013-10-19 18:40:00,
2013-10-19 13:41:00,67.3,42.8,30.15,SE,141,0.0,0.0,41,14.71,,CLR,34.61,VWS V14.01,2013-10-19 18:41:00,
2013-10-19 13:46:00,67.6,41.8,30.15,SE,141,0.0,0.0,39,13.51,,CLR,35.73,VWS V14.01,2013-10-19 18:46:00,
2013-10-19 13:50:00,67.3,40.8,30.15,SE,144,0.0,0.0,38,15.91,,CLR,33.41,VWS V14.01,2013-10-19 18:50:00,
2013-10-19 13:51:00,67.8,40.6,30.15,SE,141,0.0,0.0,37,14.71,,CLR,36.93,VWS V14.01,2013-10-19 18:51:00,
2013-10-19 13:56:00,68.1,43.5,30.15,SE,125,0.0,0.0,41,14.08,,CLR,38.13,VWS V14.01,2013-10-19 18:56:00,
2013-10-19 14:00:00,67.6,41.8,30.15,SE,141,0.0,0.0,39,15.83,,CLR,35.73,VWS V14.01,2013-10-19 19:00:00,
2013-10-19 14:01:00,68.1,42.2,30.14,SE,130,0.0,0.0,39,15.20,,CLR,39.25,VWS V14.01,2013-10-19 19:01:00,
2013-10-19 14:06:00,67.9,40.7,30.14,ESE,119,0.0,0.0,37,14.16,,CLR,40.49,VWS V14.01,2013-10-19 19:06:00,
2013-10-19 14:10:00,68.1,43.5,30.15,SE,125,0.0,0.0,41,15.91,,CLR,38.13,VWS V14.01,2013-10-19 19:10:00,
2013-10-19 14:11:00,68.1,44.2,30.14,ESE,121,0.0,0.0,42,15.24,,CLR,41.57,VWS V14.01,2013-10-19 19:11:00,
2013-10-19 14:16:00,68.3,42.4,30.14,SE,134,0.0,0.0,39,14.04,,CLR,42.77,VWS V14.01,2013-10-19 19:16:00,
2013-10-19 14:20:00,67.9,39.3,30.14,ESE,119,0.0,0.0,35,16.44,,CLR,40.49,VWS V14.01,2013-10-19 19:20:00,
2013-10-19 14:21:00,68.3,41.0,30.14,SE,129,0.0,0.0,37,15.28,,CLR,44.01,VWS V14.01,2013-10-19 19:21:00,
2013-10-19 14:26:00,68.6,41.3,30.14,SE,131,0.0,0.0,37,14.08,,CLR,45.09,VWS V14.01,2013-10-19 19:26:00,
2013-10-19 14:30:00,68.3,42.4,30.14,SSE,148,0.0,0.0,39,16.44,,CLR,42.77,VWS V14.01,2013-10-19 19:30:00,
2013-10-19 14:31:00,68.8,37.8,30.13,SE,131,0.0,0.0,32,15.32,,CLR,46.33,VWS V14.01,2013-10-19 19:31:00,
2013-10-19 14:36:00,68.6,37.6,30.13,SE,144,0.0,0.0,32,14.12,,CLR,47.53,VWS V14.01,2013-10-19 19:36:00,
2013-10-19 14:40:00,68.6,41.3,30.14,SE,131,0.0,0.0,37,16.36,,CLR,45.09,VWS V14.01,2013-10-19 19:40:00,
2013-10-19 14:41:00,68.9,38.6,30.13,SE,144,0.0,0.0,33,15.20,,CLR,48.61,VWS V14.01,2013-10-19 19:41:00,
2013-10-19 14:46:00,69.1,41.0,30.12,North,355,0.0,0.0,36,14.12,,CLR,49.85,VWS V14.01,2013-10-19 19:46:00,
2013-10-19 14:50:00,68.6,37.6,30.13,SE,144,0.0,0.0,32,16.40,,CLR,47.41,VWS V14.01,2013-10-19 19:50:00,
2013-10-19 14:51:00,69.6,39.2,30.12,WNW,302,0.0,0.0,33,15.32,,CLR,51.05,VWS V14.01,2013-10-19 19:51:00,
2013-10-19 14:56:00,69.9,43.2,30.12,NW,317,0.0,0.0,38,14.04,,CLR,52.17,VWS V14.01,2013-10-19 19:56:00,
2013-10-19 15:00:00,69.1,41.0,30.12,North,355,0.0,0.0,36,16.44,,CLR,49.85,VWS V14.01,2013-10-19 20:00:00,
2013-10-19 15:01:00,69.9,41.8,30.12,SE,143,0.0,0.0,36,15.24,,CLR,53.37,VWS V14.01,2013-10-19 20:01:00,
2013-10-19 15:06:00,70.1,39.7,30.12,South,189,0.0,0.0,33,13.96,,CLR,54.45,VWS V14.01,2013-10-19 20:06:00,
2013-10-19 15:10:00,69.9,43.2,30.12,NW,317,0.0,0.0,38,16.44,,CLR,52.17,VWS V14.01,2013-10-19 20:10:00,
2013-10-19 15:11:00,70.4,43.6,30.12,South,189,0.0,0.0,38,15.20,,CLR,55.69,VWS V14.01,2013-10-19 20:11:00,
2013-10-19 15:16:00,70.3,40.6,30.12,NE,40,0.0,0.0,34,16.28,,CLR,56.77,VWS V14.01,2013-10-19 20:16:00,
2013-10-19 15:20:00,70.1,39.7,30.12,South,189,0.0,0.0,33,16.32,,CLR,54.45,VWS V14.01,2013-10-19 20:20:00,
2013-10-19 15:21:00,70.3,41.4,30.12,NE,40,0.0,0.0,35,15.24,,CLR,58.01,VWS V14.01,2013-10-19 20:21:00,
2013-10-19 15:26:00,70.3,41.4,30.12,NE,46,0.0,0.0,35,14.00,,CLR,59.09,VWS V14.01,2013-10-19 20:26:00,
2013-10-19 15:30:00,70.3,40.6,30.12,NE,40,0.0,0.0,34,16.28,,CLR,56.77,VWS V14.01,2013-10-19 20:30:00,
2013-10-19 15:31:00,70.4,42.2,30.11,NE,47,0.0,0.0,36,15.28,,CLR,60.37,VWS V14.01,2013-10-19 20:31:00,
2013-10-19 15:36:00,70.8,41.8,30.11,ESE,116,0.0,0.0,35,14.16,,CLR,61.57,VWS V14.01,2013-10-19 20:36:00,
2013-10-19 15:40:00,70.3,41.4,30.12,NE,46,0.0,0.0,35,16.32,,CLR,59.09,VWS V14.01,2013-10-19 20:40:00,
2013-10-19 15:41:00,70.6,39.3,30.11,ESE,115,0.0,0.0,32,15.28,,CLR,62.69,VWS V14.01,2013-10-19 20:41:00,
2013-10-19 15:46:00,70.4,43.6,30.12,SE,126,0.0,0.0,38,13.96,,CLR,63.81,VWS V14.01,2013-10-19 20:46:00,
2013-10-19 15:50:00,70.8,41.8,30.11,ESE,116,0.0,0.0,35,16.36,,CLR,61.45,VWS V14.01,2013-10-19 20:50:00,
2013-10-19 15:51:00,70.6,40.9,30.12,SE,134,0.0,0.0,34,15.16,,CLR,65.01,VWS V14.01,2013-10-19 20:51:00,
2013-10-19 15:56:00,70.3,40.6,30.12,West,265,0.0,0.0,34,16.40,,CLR,66.25,VWS V14.01,2013-10-19 20:56:00,
2013-10-19 16:00:00,70.4,42.9,30.12,SE,126,0.0,0.0,37,16.40,,CLR,63.81,VWS V14.01,2013-10-19 21:00:00,
2013-10-19 16:01:00,70.1,39.7,30.11,WNW,298,0.0,0.0,33,15.16,,CLR,67.33,VWS V14.01,2013-10-19 21:01:00,
2013-10-19 16:06:00,69.8,39.4,30.11,WNW,299,0.0,0.0,33,14.12,,CLR,68.57,VWS V14.01,2013-10-19 21:06:00,
2013-10-19 16:10:00,70.3,40.6,30.12,West,265,0.0,0.0,34,16.40,,CLR,66.25,VWS V14.01,2013-10-19 21:10:00,
2013-10-19 16:11:00,69.3,41.9,30.11,WNW,292,0.0,0.0,37,15.32,,CLR,69.77,VWS V14.01,2013-10-19 21:11:00,
2013-10-19 16:16:00,68.8,39.3,30.11,WNW,292,0.0,0.0,34,14.12,,CLR,70.89,VWS V14.01,2013-10-19 21:16:00,
2013-10-19 16:20:00,69.8,39.4,30.11,WNW,299,0.0,0.0,33,16.40,,CLR,68.57,VWS V14.01,2013-10-19 21:20:00,
2013-10-19 16:21:00,68.3,41.7,30.11,WNW,292,0.0,0.0,38,14.46,,CLR,71.23,VWS V14.01,2013-10-19 21:21:00,
2013-10-19 16:26:00,67.9,40.7,30.11,NNW,331,0.0,0.0,37,12.14,,CLR,71.23,VWS V14.01,2013-10-19 21:26:00,
2013-10-19 16:30:00,68.8,39.3,30.11,WNW,292,0.0,0.0,34,16.44,,CLR,70.89,VWS V14.01,2013-10-19 21:30:00,
2013-10-19 16:31:00,67.4,40.2,30.10,NNW,331,0.0,0.0,37,12.14,,CLR,71.23,VWS V14.01,2013-10-19 21:31:00,
2013-10-19 16:36:00,67.1,41.3,30.10,NNW,331,0.0,0.0,39,9.78,,CLR,71.23,VWS V14.01,2013-10-19 21:36:00,
2013-10-19 16:40:00,67.9,40.7,30.11,NNW,331,0.0,0.0,37,14.46,,CLR,71.23,VWS V14.01,2013-10-19 21:40:00,
2013-10-19 16:41:00,66.9,39.8,30.10,NNW,331,0.0,0.0,37,9.78,,CLR,71.23,VWS V14.01,2013-10-19 21:41:00,
2013-10-19 16:46:00,66.6,40.9,30.10,NNW,331,0.0,0.0,39,7.42,,CLR,71.23,VWS V14.01,2013-10-19 21:46:00,
2013-10-19 16:50:00,67.1,41.3,30.10,NNW,331,0.0,0.0,39,12.14,,CLR,71.23,VWS V14.01,2013-10-19 21:50:00,
2013-10-19 16:51:00,66.1,41.7,30.10,NNW,331,0.0,0.0,41,7.42,,CLR,71.23,VWS V14.01,2013-10-19 21:51:00,
2013-10-19 16:56:00,65.8,42.7,30.10,NNW,331,0.0,0.0,43,7.42,,CLR,71.23,VWS V14.01,2013-10-19 21:56:00,
2013-10-19 17:00:00,70.4,42.9,30.12,SE,126,0.0,0.0,37,16.40,,CLR,63.81,VWS V15.00,2013-10-19 22:00:00,
2013-10-19 17:01:00,65.3,42.8,30.09,NNW,331,0.0,0.0,44,4.98,,CLR,71.23,VWS V14.01,2013-10-19 22:01:00,
2013-10-19 17:06:00,65.0,41.4,30.09,NNW,331,0.0,0.0,42,4.98,,CLR,71.23,VWS V14.01,2013-10-19 22:06:00,
2013-10-19 17:10:00,65.8,42.7,30.10,NNW,331,0.0,0.0,43,7.42,,CLR,71.23,VWS V14.01,2013-10-19 22:10:00,
2013-10-19 17:11:00,64.7,42.3,30.09,East,97,0.0,0.0,44,2.66,,CLR,71.23,VWS V14.01,2013-10-19 22:11:00,
2013-10-19 17:16:00,64.5,41.5,30.09,East,98,0.0,0.0,43,0.34,,CLR,71.23,VWS V14.01,2013-10-19 22:16:00,
2013-10-19 17:20:00,69.8,39.4,30.11,WNW,299,0.0,0.0,33,16.40,,CLR,68.57,VWS V15.00,2013-10-19 22:20:00,
2013-10-19 17:21:00,64.3,41.9,30.09,ENE,78,0.0,0.0,44,0.34,,CLR,71.23,VWS V14.01,2013-10-19 22:21:00,
2013-10-19 17:26:00,64.2,41.8,30.09,East,90,0.0,0.0,44,0.00,,CLR,71.23,VWS V14.01,2013-10-19 22:26:00,
2013-10-19 17:30:00,64.5,41.5,30.09,East,98,0.0,0.0,43,2.66,,CLR,71.23,VWS V14.01,2013-10-19 22:30:00,
2013-10-19 17:31:00,64.0,41.7,30.09,East,88,0.0,0.0,44,0.00,,CLR,71.23,VWS V14.01,2013-10-19 22:31:00,
2013-10-19 17:36:00,63.7,41.4,30.09,East,88,0.0,0.0,44,0.00,,CLR,71.23,VWS V14.01,2013-10-19 22:36:00,
2013-10-19 17:40:00,64.2,41.8,30.09,ENE,78,0.0,0.0,44,0.34,,CLR,71.23,VWS V14.01,2013-10-19 22:40:00,
2013-10-19 17:41:00,63.5,40.6,30.09,North,5,0.0,0.0,43,0.00,,CLR,71.23,VWS V14.01,2013-10-19 22:41:00,
2013-10-19 17:46:00,63.4,41.1,30.09,North,5,0.0,0.0,44,0.00,,CLR,71.23,VWS V14.01,2013-10-19 22:46:00,
2013-10-19 17:50:00,63.7,41.4,30.09,East,88,0.0,0.0,44,0.00,,CLR,71.23,VWS V14.01,2013-10-19 22:50:00,
2013-10-19 17:51:00,63.0,40.2,30.09,North,5,0.0,0.0,43,0.00,,CLR,71.23,VWS V14.01,2013-10-19 22:51:00,
2013-10-19 17:56:00,62.9,40.7,30.09,North,5,0.0,0.0,44,0.00,,CLR,71.23,VWS V14.01,2013-10-19 22:56:00,
2013-10-19 18:00:00,63.4,41.1,30.09,North,5,0.0,0.0,44,0.00,,CLR,71.23,VWS V14.01,2013-10-19 23:00:00,
2013-10-19 18:01:00,62.6,42.7,30.08,North,5,0.0,0.0,48,0.00,,CLR,71.23,VWS V14.01,2013-10-19 23:01:00,
2013-10-19 18:06:00,62.2,41.2,30.08,North,5,0.0,0.0,46,0.00,,CLR,71.23,VWS V14.01,2013-10-19 23:06:00,
2013-10-19 18:10:00,62.9,40.7,30.09,North,5,0.0,0.0,44,0.00,,CLR,71.23,VWS V14.01,2013-10-19 23:10:00,
2013-10-19 18:11:00,61.9,42.0,30.08,North,5,0.0,0.0,48,0.00,,CLR,71.23,VWS V14.01,2013-10-19 23:11:00,
2013-10-19 18:16:00,61.8,40.8,30.08,North,5,0.0,0.0,46,0.00,,CLR,71.23,VWS V14.01,2013-10-19 23:16:00,
2013-10-19 18:20:00,65.0,41.4,30.09,NNW,331,0.0,0.0,42,4.98,,CLR,71.23,VWS V15.00,2013-10-19 23:20:00,
2013-10-19 18:21:00,61.5,41.7,30.08,North,5,0.0,0.0,48,0.00,,CLR,71.23,VWS V14.01,2013-10-19 23:21:00,
2013-10-19 18:26:00,61.1,41.8,30.08,North,5,0.0,0.0,49,0.00,,CLR,71.23,VWS V14.01,2013-10-19 23:26:00,
2013-10-19 18:30:00,61.8,40.8,30.08,North,5,0.0,0.0,46,0.00,,CLR,71.23,VWS V14.01,2013-10-19 23:30:00,
2013-10-19 18:31:00,60.8,41.5,30.08,North,5,0.0,0.0,49,0.00,,CLR,71.23,VWS V14.01,2013-10-19 23:31:00,
2013-10-19 18:36:00,60.5,42.3,30.08,North,5,0.0,0.0,51,0.00,,CLR,71.23,VWS V14.01,2013-10-19 23:36:00,
2013-10-19 18:40:00,61.1,41.8,30.08,North,5,0.0,0.0,49,0.00,,CLR,71.23,VWS V14.01,2013-10-19 23:40:00,
2013-10-19 18:41:00,60.2,43.5,30.08,North,5,0.0,0.0,54,0.00,,CLR,71.23,VWS V14.01,2013-10-19 23:41:00,
2013-10-19 18:46:00,59.9,44.2,30.09,North,5,0.0,0.0,56,0.00,,CLR,71.23,VWS V14.01,2013-10-19 23:46:00,
2013-10-19 18:50:00,60.7,42.5,30.08,North,5,0.0,0.0,51,0.00,,CLR,71.23,VWS V14.01,2013-10-19 23:50:00,
2013-10-19 18:51:00,59.6,44.8,30.09,North,5,0.0,0.0,58,0.00,,CLR,71.23,VWS V14.01,2013-10-19 23:51:00,
2013-10-19 18:56:00,59.3,45.4,30.09,North,5,0.0,0.0,60,0.00,,CLR,71.23,VWS V14.01,2013-10-19 23:56:00,
2013-10-19 19:00:00,63.4,41.1,30.09,North,5,0.0,0.0,44,0.00,,CLR,71.23,VWS V15.00,2013-10-20 00:00:00,
2013-10-19 19:01:00,58.8,45.8,30.09,North,5,0.0,0.0,62,0.00,,CLR,71.23,VWS V14.01,2013-10-20 00:01:00,
2013-10-19 19:06:00,58.4,46.3,30.09,North,5,0.0,0.0,64,0.00,,CLR,71.23,VWS V14.01,2013-10-20 00:06:00,
2013-10-19 19:10:00,59.3,45.4,30.09,North,5,0.0,0.0,60,0.00,,CLR,71.23,VWS V14.01,2013-10-20 00:10:00,
2013-10-19 19:11:00,57.9,46.6,30.09,North,5,0.0,0.0,66,0.00,,CLR,71.23,VWS V14.01,2013-10-20 00:11:00,
2013-10-19 19:16:00,57.5,46.6,30.09,North,5,0.0,0.0,67,0.00,,CLR,71.23,VWS V14.01,2013-10-20 00:16:00,
2013-10-19 19:20:00,62.2,40.6,30.08,North,5,0.0,0.0,45,0.00,,CLR,71.23,VWS V15.00,2013-10-20 00:20:00,
2013-10-19 19:21:00,57.0,46.6,30.09,North,5,0.0,0.0,68,0.00,,CLR,71.23,VWS V14.01,2013-10-20 00:21:00,
2013-10-19 19:26:00,56.5,46.1,30.09,North,5,0.0,0.0,68,0.00,,CLR,71.23,VWS V14.01,2013-10-20 00:26:00,
2013-10-19 19:30:00,61.8,40.8,30.08,North,5,0.0,0.0,46,0.00,,CLR,71.23,VWS V15.00,2013-10-20 00:30:00,
2013-10-19 19:31:00,56.1,46.5,30.09,North,5,0.0,0.0,70,0.00,,CLR,71.23,VWS V14.01,2013-10-20 00:31:00,
2013-10-19 19:36:00,55.7,47.2,30.09,North,5,0.0,0.0,73,0.00,,CLR,71.23,VWS V14.01,2013-10-20 00:36:00,
2013-10-19 19:40:00,56.5,46.1,30.09,North,5,0.0,0.0,68,0.00,,CLR,71.23,VWS V14.01,2013-10-20 00:40:00,
2013-10-19 19:41:00,55.2,46.7,30.09,North,5,0.0,0.0,73,0.00,,CLR,71.23,VWS V14.01,2013-10-20 00:41:00,
2013-10-19 19:46:00,54.8,46.3,30.09,North,5,0.0,0.0,73,0.00,,CLR,71.23,VWS V14.01,2013-10-20 00:46:00,
2013-10-19 19:50:00,55.7,47.2,30.09,North,5,0.0,0.0,73,0.00,,CLR,71.23,VWS V14.01,2013-10-20 00:50:00,
2013-10-19 19:51:00,54.6,46.1,30.09,North,5,0.0,0.0,73,0.00,,CLR,71.23,VWS V14.01,2013-10-20 00:51:00,
2013-10-19 19:56:00,54.3,45.8,30.09,North,5,0.0,0.0,73,0.00,,CLR,71.23,VWS V14.01,2013-10-20 00:56:00,
2013-10-19 20:00:00,59.9,44.2,30.09,North,5,0.0,0.0,56,0.00,,CLR,71.23,VWS V15.00,2013-10-20 01:00:00,
2013-10-19 20:01:00,54.0,45.9,30.09,North,5,0.0,0.0,74,0.00,,CLR,71.23,VWS V14.01,2013-10-20 01:01:00,
2013-10-19 20:06:00,53.7,45.3,30.09,North,5,0.0,0.0,73,0.00,,CLR,71.23,VWS V14.01,2013-10-20 01:06:00,
2013-10-19 20:10:00,54.3,45.8,30.09,North,5,0.0,0.0,73,0.00,,CLR,71.23,VWS V14.01,2013-10-20 01:10:00,
2013-10-19 20:11:00,53.4,45.0,30.09,North,5,0.0,0.0,73,0.00,,CLR,71.23,VWS V14.01,2013-10-20 01:11:00,
2013-10-19 20:16:00,53.3,45.6,30.09,North,5,0.0,0.0,75,0.00,,CLR,71.23,VWS V14.01,2013-10-20 01:16:00,
2013-10-19 20:20:00,53.7,45.3,30.09,North,5,0.0,0.0,73,0.00,,CLR,71.23,VWS V14.01,2013-10-20 01:20:00,
2013-10-19 20:21:00,53.0,45.3,30.09,North,5,0.0,0.0,75,0.00,,CLR,71.23,VWS V14.01,2013-10-20 01:21:00,
2013-10-19 20:26:00,52.7,44.7,30.09,North,5,0.0,0.0,74,0.00,,CLR,71.23,VWS V14.01,2013-10-20 01:26:00,
2013-10-19 20:30:00,53.3,45.6,30.09,North,5,0.0,0.0,75,0.00,,CLR,71.23,VWS V14.01,2013-10-20 01:30:00,
2013-10-19 20:31:00,52.4,44.7,30.09,North,5,0.0,0.0,75,0.00,,CLR,71.23,VWS V14.01,2013-10-20 01:31:00,
2013-10-19 20:36:00,52.3,44.6,30.09,North,5,0.0,0.0,75,0.00,,CLR,71.23,VWS V14.01,2013-10-20 01:36:00,
2013-10-19 20:40:00,52.7,44.7,30.09,North,5,0.0,0.0,74,0.00,,CLR,71.23,VWS V14.01,2013-10-20 01:40:00,
2013-10-19 20:41:00,52.1,44.8,30.09,North,5,0.0,0.0,76,0.00,,CLR,71.23,VWS V14.01,2013-10-20 01:41:00,
2013-10-19 20:46:00,52.0,45.0,30.10,North,5,0.0,0.0,77,0.00,,CLR,71.23,VWS V14.01,2013-10-20 01:46:00,
2013-10-19 20:50:00,52.3,44.6,30.09,North,5,0.0,0.0,75,0.00,,CLR,71.23,VWS V14.01,2013-10-20 01:50:00,
2013-10-19 20:51:00,51.8,45.2,30.10,North,5,0.0,0.0,78,0.00,,CLR,71.23,VWS V14.01,2013-10-20 01:51:00,
2013-10-19 20:56:00,51.7,45.1,30.10,North,5,0.0,0.0,78,0.00,,CLR,71.23,VWS V14.01,2013-10-20 01:56:00,
2013-10-19 21:00:00,52.0,45.0,30.10,North,5,0.0,0.0,77,0.00,,CLR,71.23,VWS V14.01,2013-10-20 02:00:00,
2013-10-19 21:01:00,51.5,44.9,30.10,North,5,0.0,0.0,78,0.00,,CLR,71.23,VWS V14.01,2013-10-20 02:01:00,
2013-10-19 21:06:00,51.4,45.1,30.10,North,5,0.0,0.0,79,0.00,,CLR,71.23,VWS V14.01,2013-10-20 02:06:00,
2013-10-19 21:10:00,51.7,45.1,30.10,North,5,0.0,0.0,78,0.00,,CLR,71.23,VWS V14.01,2013-10-20 02:10:00,
2013-10-19 21:11:00,51.2,45.2,30.10,North,5,0.0,0.0,80,0.00,,CLR,71.23,VWS V14.01,2013-10-20 02:11:00,
2013-10-19 21:16:00,51.1,45.2,30.11,North,5,0.0,0.0,80,0.00,,CLR,71.23,VWS V14.01,2013-10-20 02:16:00,
2013-10-19 21:20:00,51.4,45.1,30.10,North,5,0.0,0.0,79,0.00,,CLR,71.23,VWS V14.01,2013-10-20 02:20:00,
2013-10-19 21:21:00,50.8,45.2,30.11,North,5,0.0,0.0,81,0.00,,CLR,71.23,VWS V14.01,2013-10-20 02:21:00,
2013-10-19 21:26:00,50.6,45.3,30.11,North,5,0.0,0.0,82,0.00,,CLR,71.23,VWS V14.01,2013-10-20 02:26:00,
2013-10-19 21:30:00,51.1,45.2,30.11,North,5,0.0,0.0,80,0.00,,CLR,71.23,VWS V14.01,2013-10-20 02:30:00,
2013-10-19 21:31:00,50.5,45.2,30.10,North,5,0.0,0.0,82,0.00,,CLR,71.23,VWS V14.01,2013-10-20 02:31:00,
2013-10-19 21:36:00,50.3,45.0,30.10,North,5,0.0,0.0,82,0.00,,CLR,71.23,VWS V14.01,2013-10-20 02:36:00,
2013-10-19 21:40:00,50.6,45.3,30.11,North,5,0.0,0.0,82,0.00,,CLR,71.23,VWS V14.01,2013-10-20 02:40:00,
2013-10-19 21:41:00,50.2,44.9,30.10,North,5,0.0,0.0,82,0.00,,CLR,71.23,VWS V14.01,2013-10-20 02:41:00,
2013-10-19 21:46:00,50.2,45.2,30.11,North,5,0.0,0.0,83,0.00,,CLR,71.23,VWS V14.01,2013-10-20 02:46:00,
2013-10-19 21:50:00,50.3,45.0,30.10,North,5,0.0,0.0,82,0.00,,CLR,71.23,VWS V14.01,2013-10-20 02:50:00,
2013-10-19 21:51:00,50.0,45.0,30.11,North,5,0.0,0.0,83,0.00,,CLR,71.23,VWS V14.01,2013-10-20 02:51:00,
2013-10-19 21:56:00,50.0,45.4,30.11,North,5,0.0,0.0,84,0.00,,CLR,71.23,VWS V14.01,2013-10-20 02:56:00,
2013-10-19 22:00:00,50.2,45.2,30.11,North,5,0.0,0.0,83,0.00,,CLR,71.23,VWS V14.01,2013-10-20 03:00:00,
2013-10-19 22:01:00,50.2,46.2,30.11,North,5,0.0,0.0,86,0.00,,CLR,71.23,VWS V14.01,2013-10-20 03:01:00,
2013-10-19 22:06:00,50.2,46.2,30.11,North,5,0.0,0.0,86,0.00,,CLR,71.23,VWS V14.01,2013-10-20 03:06:00,
2013-10-19 22:10:00,50.0,45.4,30.11,North,5,0.0,0.0,84,0.00,,CLR,71.23,VWS V14.01,2013-10-20 03:10:00,
2013-10-19 22:11:00,50.2,46.5,30.11,North,5,0.0,0.0,87,0.00,,CLR,71.23,VWS V14.01,2013-10-20 03:11:00,
2013-10-19 22:16:00,50.0,46.3,30.11,North,5,0.0,0.0,87,0.00,,CLR,71.23,VWS V14.01,2013-10-20 03:16:00,
2013-10-19 22:20:00,50.2,46.2,30.11,North,5,0.0,0.0,86,0.00,,CLR,71.23,VWS V14.01,2013-10-20 03:20:00,
2013-10-19 22:21:00,49.9,46.2,30.11,North,5,0.0,0.0,87,0.00,,CLR,71.23,VWS V14.01,2013-10-20 03:21:00,
2013-10-19 22:26:00,49.7,46.0,30.11,North,5,0.0,0.0,87,0.00,,CLR,71.23,VWS V14.01,2013-10-20 03:26:00,
2013-10-19 22:30:00,50.2,46.5,30.11,North,5,0.0,0.0,87,0.00,,CLR,71.23,VWS V14.01,2013-10-20 03:30:00,
2013-10-19 22:31:00,49.7,46.0,30.11,North,5,0.0,0.0,87,0.00,,CLR,71.23,VWS V14.01,2013-10-20 03:31:00,
2013-10-19 22:36:00,49.6,45.9,30.11,North,5,0.0,0.0,87,0.00,,CLR,71.23,VWS V14.01,2013-10-20 03:36:00,
2013-10-19 22:40:00,49.9,46.2,30.11,North,5,0.0,0.0,87,0.00,,CLR,71.23,VWS V14.01,2013-10-20 03:40:00,
2013-10-19 22:41:00,49.6,45.9,30.11,North,5,0.0,0.0,87,0.00,,CLR,71.23,VWS V14.01,2013-10-20 03:41:00,
2013-10-19 22:46:00,49.6,46.2,30.11,North,5,0.0,0.0,88,0.00,,CLR,71.23,VWS V14.01,2013-10-20 03:46:00,
2013-10-19 22:50:00,49.6,45.9,30.11,North,5,0.0,0.0,87,0.00,,CLR,71.23,VWS V14.01,2013-10-20 03:50:00,
2013-10-19 22:51:00,49.4,46.0,30.11,North,5,0.0,0.0,88,0.00,,CLR,71.23,VWS V14.01,2013-10-20 03:51:00,
2013-10-19 22:56:00,49.4,46.0,30.11,North,5,0.0,0.0,88,0.00,,CLR,71.23,VWS V14.01,2013-10-20 03:56:00,
2013-10-19 23:00:00,49.6,46.2,30.11,North,5,0.0,0.0,88,0.00,,CLR,71.23,VWS V14.01,2013-10-20 04:00:00,
2013-10-19 23:01:00,49.4,46.0,30.11,North,5,0.0,0.0,88,0.00,,CLR,71.23,VWS V14.01,2013-10-20 04:01:00,
2013-10-19 23:06:00,49.3,45.9,30.11,North,5,0.0,0.0,88,0.00,,CLR,71.23,VWS V14.01,2013-10-20 04:06:00,
2013-10-19 23:10:00,49.4,46.0,30.11,North,5,0.0,0.0,88,0.00,,CLR,71.23,VWS V14.01,2013-10-20 04:10:00,
2013-10-19 23:11:00,49.3,45.9,30.11,North,5,0.0,0.0,88,0.00,,CLR,71.23,VWS V14.01,2013-10-20 04:11:00,
2013-10-19 23:16:00,49.1,45.7,30.11,North,5,0.0,0.0,88,0.00,,CLR,71.23,VWS V14.01,2013-10-20 04:16:00,
2013-10-19 23:20:00,49.3,45.9,30.11,North,5,0.0,0.0,88,0.00,,CLR,71.23,VWS V14.01,2013-10-20 04:20:00,
2013-10-19 23:21:00,49.0,45.6,30.11,North,5,0.0,0.0,88,0.00,,CLR,71.23,VWS V14.01,2013-10-20 04:21:00,
2013-10-19 23:26:00,48.9,45.5,30.11,North,5,0.0,0.0,88,0.00,,CLR,71.23,VWS V14.01,2013-10-20 04:26:00,
2013-10-19 23:30:00,49.1,45.7,30.11,North,5,0.0,0.0,88,0.00,,CLR,71.23,VWS V14.01,2013-10-20 04:30:00,
2013-10-19 23:31:00,48.9,45.5,30.11,North,5,0.0,0.0,88,0.00,,CLR,71.23,VWS V14.01,2013-10-20 04:31:00,
2013-10-19 23:36:00,48.9,45.8,30.11,North,5,0.0,0.0,89,0.00,,CLR,71.23,VWS V14.01,2013-10-20 04:36:00,
2013-10-19 23:40:00,49.0,45.6,30.11,North,5,0.0,0.0,88,0.00,,CLR,71.23,VWS V14.01,2013-10-20 04:40:00,
2013-10-19 23:41:00,48.9,45.8,30.11,North,5,0.0,0.0,89,0.00,,CLR,71.23,VWS V14.01,2013-10-20 04:41:00,
2013-10-19 23:46:00,48.7,45.6,30.10,North,5,0.0,0.0,89,0.00,,CLR,0.00,VWS V14.01,2013-10-20 04:46:00,
2013-10-19 23:50:00,48.9,45.8,30.11,North,5,0.0,0.0,89,0.00,,CLR,71.23,VWS V14.01,2013-10-20 04:50:00,
2013-10-19 23:51:00,48.7,45.6,30.10,North,5,0.0,0.0,89,0.00,,CLR,0.00,VWS V14.01,2013-10-20 04:51:00,
2013-10-19 23:56:00,48.6,45.5,30.10,North,5,0.0,0.0,89,0.00,,CLR,0.00,VWS V14.01,2013-10-20 04:56:00,